Location: 3 Angels Observatory
(30.5437°N, 88.5068°W)
Time: 04:58:06
(UTC-05:00)

Amateur Radio Satellites - All Passes

Search period start: 20 September 2014 04:28
Search period end: 21 September 2014 04:28
Location: 3 Angels Observatory, 30.5437°N, 88.5068°W

Satellite Date Start Highest point End Downlink Frequencies (MHz)
Time Altitude Azimuth
PANSAT 20 Sep 04:34:25 04:38:09 50° 190° (S) 04:41:52 not established
JAS-1B 20 Sep 04:39:14 04:41:52 14° 296° (WNW) 04:44:31 435.800 - 435.900 CW/SSB
Gurwin Techsat 1B 20 Sep 05:05:45 05:08:26 14° 294° (WNW) 05:11:08 435.225 FM
KITSAT 1 20 Sep 05:25:01 05:33:07 84° 246° (WSW) 05:41:09 435.175 FM
AO-7 20 Sep 05:27:01 05:35:20 88° 287° (WNW) 05:43:38 29.400 - 29.500 MHz
Uosat F 20 Sep 05:48:35 05:53:18 42° 287° (WNW) 05:58:00 435.120 FM
OPAL 20 Sep 05:52:12 05:56:17 24° 262° (W) 06:00:25 ?
PANSAT 20 Sep 06:15:03 06:17:59 21° 201° (SSW) 06:20:55 not established
JAS-2 20 Sep 06:31:38 06:37:54 68° 102° (ESE) 06:44:59 435.800 - 435.900 CW/SSB, 435.910 FM
STRAND 1 20 Sep 06:33:11 06:37:56 42° 73° (ENE) 06:42:43 ?
Hamsat 20 Sep 06:36:09 06:40:22 68° 101° (E) 06:44:31 145.90 MHz
RS-15 20 Sep 06:36:18 06:44:21 23° 317° (NW) 06:52:26 29.354 - 29.394 USB, Beacon 29.352 USB
SO-50 20 Sep 07:14:41 07:19:08 36° 58° (ENE) 07:23:36 436.795 FM
AO-7 20 Sep 07:22:40 07:26:57 15° 303° (WNW) 07:31:14 29.400 - 29.500 MHz
MaSat-1 20 Sep 07:23:38 07:27:48 28° 105° (ESE) 07:32:02 437.345 MHz
KITSAT 1 20 Sep 07:25:04 07:27:19 11° 260° (W) 07:29:34 435.175 FM
SO-67 20 Sep 07:43:49 07:47:12 52° 100° (E) 07:50:34 435.3500 MHz FM
STRAND 1 20 Sep 08:14:04 08:17:14 17° 265° (W) 08:20:24 ?
JAS-2 20 Sep 08:18:50 08:22:31 16° 293° (WNW) 08:26:27 435.800 - 435.900 CW/SSB, 435.910 FM
ISS 20 Sep 08:45:23 08:46:41 12° 33° (NNE) 08:47:59 145.800 FM
UOSAT-12 20 Sep 08:49:43 08:53:40 26° 55° (NE) 08:57:33 437.025 FM, 437.400 FM
SO-50 20 Sep 08:55:55 08:59:26 20° 251° (WSW) 09:02:57 436.795 FM
MaSat-1 20 Sep 09:00:13 09:04:26 27° 298° (WNW) 09:08:40 437.345 MHz
HO-68 20 Sep 09:25:34 09:32:25 46° 101° (E) 09:39:14 435.675 MHz FM
Oscar 11 20 Sep 09:48:01 09:51:16 21° 96° (E) 09:54:30 145.825 FM, Beacon 2401.500 USB
UKube-1 20 Sep 10:04:37 10:08:49 47° 100° (E) 10:13:01 145.840 MHz, 145.915 MHz
ISS 20 Sep 10:20:24 10:23:41 62° 228° (SW) 10:26:57 145.800 FM
UOSAT-12 20 Sep 10:29:49 10:33:41 26° 250° (WSW) 10:37:29 437.025 FM, 437.400 FM
PCSat 20 Sep 10:34:37 10:36:48 13° 103° (ESE) 10:39:00 145.825 MHz
HO-68 20 Sep 11:13:56 11:19:44 28° 295° (WNW) 11:25:33 435.675 MHz FM
FUNcube-1 20 Sep 11:14:51 11:19:29 88° 283° (WNW) 11:24:01 145.950 - 145.970 MHz USB
RS-15 20 Sep 11:18:00 11:23:36 15° 34° (NE) 11:29:14 29.354 - 29.394 USB, Beacon 29.352 USB
Oscar 11 20 Sep 11:23:49 11:27:20 25° 288° (WNW) 11:30:51 145.825 FM, Beacon 2401.500 USB
UKube-1 20 Sep 11:43:03 11:44:33 12° 293° (WNW) 11:46:03 145.840 MHz, 145.915 MHz
Oscar 10/S400 20 Sep 11:46:01 04:27:36 40° 223° (SW) 12:35:59 145.825 - 145.975 CW/USB, Beacon 145.810 USB
Sapphire 20 Sep 11:47:19 11:52:39 67° 112° (ESE) 11:58:01 437.095 MHz 1200 baud AX-25 AFSK
PCSat 20 Sep 12:14:16 12:19:36 62° 296° (WNW) 12:24:58 145.825 MHz
Oscar 16 20 Sep 12:25:11 12:26:51 12° 65° (ENE) 12:28:32 437.025 USB, Beacon 2401.1428
ITAMSAT 1 20 Sep 13:09:43 13:11:57 13° 65° (ENE) 13:14:11 435.822 SSB
Uribyol 2 20 Sep 13:12:57 13:15:51 15° 66° (ENE) 13:18:46 436.500 FM
Oscar 19 20 Sep 13:21:42 13:26:38 46° 73° (ENE) 13:31:35 437.125 CW, 437.150 USB
JAS-1B 20 Sep 13:23:39 13:31:25 37° 71° (ENE) 13:38:06 435.800 - 435.900 CW/SSB
RS-15 20 Sep 13:27:46 13:38:48 60° 59° (ENE) 13:50:17 29.354 - 29.394 USB, Beacon 29.352 USB
Sapphire 20 Sep 13:33:46 13:36:31 14° 307° (NW) 13:39:17 437.095 MHz 1200 baud AX-25 AFSK
AO-27 20 Sep 13:42:27 13:46:53 30° 71° (ENE) 13:51:20 436.795 MHz FM
Oscar 16 20 Sep 14:00:25 14:05:34 67° 258° (WSW) 14:10:44 437.025 USB, Beacon 2401.1428
AO-Echo 20 Sep 14:06:52 14:11:34 61° 75° (ENE) 14:16:13 ?
AO-7 20 Sep 14:32:48 14:36:11 13° 55° (NE) 14:39:34 29.400 - 29.500 MHz
Gurwin Techsat 1B 20 Sep 14:39:20 14:44:26 51° 74° (ENE) 14:49:33 435.225 FM
ITAMSAT 1 20 Sep 14:45:48 14:50:52 59° 259° (WSW) 14:55:58 435.822 SSB
Uribyol 2 20 Sep 14:49:52 14:54:51 50° 260° (W) 14:59:52 436.500 FM
Oscar 19 20 Sep 15:03:03 15:06:06 16° 266° (W) 15:09:11 437.125 CW, 437.150 USB
JAS-1B 20 Sep 15:13:27 15:21:45 41° 260° (W) 15:28:55 435.800 - 435.900 CW/SSB
TMSAT-1 20 Sep 15:15:34 15:20:51 86° 76° (ENE) 15:26:09 436.925 FM
Uosat F 20 Sep 15:20:26 15:22:40 13° 66° (ENE) 15:24:53 435.120 FM
AO-27 20 Sep 15:22:10 15:26:18 24° 263° (W) 15:30:28 436.795 MHz FM
Saudisat 1A 20 Sep 15:39:35 15:41:53 14° 108° (ESE) 15:44:12 436.775 MHz
RS-15 20 Sep 15:41:06 15:50:29 32° 255° (WSW) 16:00:16 29.354 - 29.394 USB, Beacon 29.352 USB
AO-7 20 Sep 16:19:20 16:27:38 78° 72° (ENE) 16:35:56 29.400 - 29.500 MHz
Gurwin Techsat 1B 20 Sep 16:21:45 16:24:36 15° 266° (W) 16:27:27 435.225 FM
OPAL 20 Sep 16:30:16 16:32:39 13° 95° (E) 16:35:01 ?
JAS-2 20 Sep 16:43:22 16:44:50 11° 65° (ENE) 16:46:17 435.800 - 435.900 CW/SSB, 435.910 FM
Uosat F 20 Sep 16:56:02 17:00:55 55° 259° (W) 17:05:49 435.120 FM
Saudisat 1A 20 Sep 17:16:56 17:21:04 40° 301° (WNW) 17:25:14 436.775 MHz
MaSat-1 20 Sep 17:23:40 17:25:02 12° 56° (NE) 17:26:21 437.345 MHz
Hamsat 20 Sep 17:24:21 17:27:52 24° 72° (ENE) 17:31:22 145.90 MHz
KITSAT 1 20 Sep 17:53:29 17:59:42 25° 105° (ESE) 18:05:54 435.175 FM
OPAL 20 Sep 18:06:46 18:11:45 53° 288° (WNW) 18:16:40 ?
AO-7 20 Sep 18:16:04 18:20:57 17° 265° (W) 18:25:52 29.400 - 29.500 MHz
JAS-2 20 Sep 18:24:06 18:29:25 62° 259° (WSW) 18:34:32 435.800 - 435.900 CW/SSB, 435.910 FM
STRAND 1 20 Sep 18:50:00 18:54:02 23° 97° (E) 18:58:03 ?
MaSat-1 20 Sep 18:59:05 19:01:48 22° 256° (WSW) 19:04:13 437.345 MHz
Hamsat 20 Sep 19:00:22 19:03:42 21° 264° (W) 19:07:02 145.90 MHz
SO-67 20 Sep 19:44:00 19:47:16 41° 261° (W) 19:50:33 435.3500 MHz FM
KITSAT 1 20 Sep 19:46:37 19:54:30 57° 299° (WNW) 20:02:27 435.175 FM
HO-68 20 Sep 19:50:02 19:54:48 20° 62° (ENE) 19:59:35 435.675 MHz FM
STRAND 1 20 Sep 20:28:40 20:33:09 31° 289° (WNW) 20:37:39 ?
Sapphire 20 Sep 20:42:15 20:45:49 17° 54° (NE) 20:49:21 437.095 MHz 1200 baud AX-25 AFSK
UKube-1 20 Sep 20:55:32 20:58:43 20° 70° (ENE) 21:01:54 145.840 MHz, 145.915 MHz
PCSat 20 Sep 21:08:11 21:13:01 32° 59° (ENE) 21:17:49 145.825 MHz
SO-50 20 Sep 21:24:23 21:28:30 40° 113° (ESE) 21:32:44 436.795 FM
HO-68 20 Sep 21:34:47 21:41:50 65° 257° (WSW) 21:48:56 435.675 MHz FM
KITSAT 1 20 Sep 21:50:37 21:51:44 10° 320° (NW) 21:52:51 435.175 FM
FUNcube-1 20 Sep 22:05:47 22:09:46 36° 73° (ENE) 22:13:51 145.950 - 145.970 MHz USB
Oscar 11 20 Sep 22:12:17 22:16:36 64° 259° (W) 22:20:57 145.825 FM, Beacon 2401.500 USB
Sapphire 20 Sep 22:24:14 22:29:30 52° 249° (WSW) 22:34:43 437.095 MHz 1200 baud AX-25 AFSK
UKube-1 20 Sep 22:31:08 22:34:42 25° 262° (W) 22:38:18 145.840 MHz, 145.915 MHz
PCSat 20 Sep 22:51:49 22:56:14 26° 253° (WSW) 23:00:37 145.825 MHz
UOSAT-12 20 Sep 22:55:35 22:59:25 27° 111° (ESE) 23:03:20 437.025 FM, 437.400 FM
SO-50 20 Sep 23:06:19 23:09:12 17° 308° (NW) 23:12:09 436.795 FM
PANSAT 20 Sep 23:11:26 23:13:12 13° 155° (SSE) 23:14:58 not established
FUNcube-1 20 Sep 23:43:47 23:46:14 15° 266° (W) 23:48:43 145.950 - 145.970 MHz USB
UOSAT-12 21 Sep 00:35:41 00:39:28 25° 305° (NW) 00:43:19 437.025 FM, 437.400 FM
PANSAT 21 Sep 00:49:22 00:52:56 37° 165° (SSE) 00:56:30 not established
ISS 21 Sep 01:21:56 01:25:12 61° 132° (SE) 01:28:29 145.800 FM
Oscar 19 21 Sep 01:39:34 01:43:50 26° 97° (E) 01:48:03 437.125 CW, 437.150 USB
Saudisat 1A 21 Sep 01:48:56 01:52:51 31° 57° (ENE) 01:56:45 436.775 MHz
AO-27 21 Sep 02:01:54 02:05:16 17° 95° (E) 02:08:36 436.795 MHz FM
Oscar 16 21 Sep 02:17:54 02:23:04 71° 102° (ESE) 02:28:11 437.025 USB, Beacon 2401.1428
AO-Echo 21 Sep 02:19:37 02:23:59 32° 98° (E) 02:28:28 ?
PANSAT 21 Sep 02:29:07 02:32:55 64° 178° (S) 02:36:43 not established
ISS 21 Sep 03:00:50 03:02:11 12° 327° (NNW) 03:03:32 145.800 FM
Gurwin Techsat 1B 21 Sep 03:01:34 03:06:19 33° 98° (E) 03:11:02 435.225 FM
ITAMSAT 1 21 Sep 03:04:16 03:09:31 80° 103° (ESE) 03:14:44 435.822 SSB
JAS-1B 21 Sep 03:05:02 03:10:43 87° 104° (ESE) 03:16:38 435.800 - 435.900 CW/SSB
Uribyol 2 21 Sep 03:08:06 03:13:21 87° 284° (WNW) 03:18:34 436.500 FM
Oscar 19 21 Sep 03:18:43 03:23:03 28° 290° (WNW) 03:27:21 437.125 CW, 437.150 USB
Saudisat 1A 21 Sep 03:29:03 03:32:10 19° 250° (WSW) 03:35:17 436.775 MHz
TMSAT-1 21 Sep 03:37:16 03:42:28 55° 101° (E) 03:47:39 436.925 FM
AO-27 21 Sep 03:39:58 03:44:52 43° 287° (WNW) 03:49:46 436.795 MHz FM
OPAL 21 Sep 03:40:00 03:42:38 14° 64° (ENE) 03:45:17 ?
RS-15 21 Sep 03:43:39 03:54:41 68° 112° (ESE) 04:05:27 29.354 - 29.394 USB, Beacon 29.352 USB
KITSAT 1 21 Sep 03:46:40 03:53:25 28° 53° (NE) 04:00:06 435.175 FM
AO-Echo 21 Sep 03:58:50 04:02:32 22° 290° (WNW) 04:06:18 ?
Oscar 16 21 Sep 04:00:41 04:01:44 11° 296° (WNW) 04:02:48 437.025 USB, Beacon 2401.1428
PANSAT 21 Sep 04:09:14 04:12:57 49° 190° (S) 04:16:39 not established
